FW3899 Weather Reports


Display with metric or nautical units.
time (UTC)temp
F
wind
direction
speed
MPH
gust
MPH
rain 1hr
in
rain 24hr
in
rain mn
in
humidity
%
barometer
mb
20260903100009 73 279 6.0 13.0 0.00 0.00 0.00 63 1022.0
20260903094506 74 275 4.0 11.0 0.00 0.00 0.00 62 1021.9
20260903093002 73 303 5.0 9.0 0.00 0.00 0.00 62 1022.0
20260903091559 73 284 8.0 12.0 0.00 0.00 0.00 62 1022.0
20260903090056 72 225 6.0 10.0 0.00 0.00 0.00 63 1022.1
20260903084551 72 283 2.0 8.0 0.00 0.00 0.00 67 1021.9
20260903083049 72 236 5.0 9.0 0.00 0.00 0.00 68 1022.3
20260903081544 71 41 0.0 0.0 0.00 0.00 0.00 72 1022.0
20260903080141 70 51 0.0 0.0 0.00 0.00 0.00 72 1021.8
20260903074537 70 70 0.0 0.0 0.00 0.00 0.00 73 1021.8
20260903073038 68 71 0.0 0.0 0.00 0.00 0.00 73 1021.8
20260903071530 68 80 0.0 0.0 0.00 0.00 0.00 74 1022.1
20260903070024 66 71 0.0 0.0 0.00 0.00 0.00 78 1022.0
20260903064520 66 162 0.0 0.0 0.00 0.00 0.00 78 1022.1
20260903063019 66 237 0.0 0.0 0.00 0.00 0.00 77 1022.2
20260903061511 63 237 0.0 0.0 0.00 0.00 0.00 79 1021.9
20260903060008 63 237 0.0 0.0 0.00 0.00 0.00 81 1022.1
20260903054511 61 220 0.0 0.0 0.00 0.00 0.00 83 1021.9
20260903053003 58 220 0.0 0.0 0.00 0.00 0.00 85 1021.6
20260903051600 57 220 0.0 0.0 0.00 0.00 0.00 86 1021.6
20260903050057 57 227 0.0 0.0 0.00 0.00 0.00 85 1021.7
20260903044558 57 227 0.0 0.0 0.00 0.00 0.00 86 1021.6
20260903043053 57 227 0.0 0.0 0.00 0.00 0.00 86 1021.3
20260903041608 57 228 0.0 0.0 0.00 0.00 0.00 86 1021.4
20260903040052 57 236 0.0 0.0 0.00 0.00 0.00 85 1021.4
20260903034550 58 246 0.0 0.0 0.00 0.00 0.00 85 1021.4
20260903033048 58 251 0.0 0.0 0.00 0.00 0.00 85 1021.3
20260903031547 59 207 0.0 0.0 0.00 0.00 0.00 84 1021.3
20260903030044 59 207 0.0 0.0 0.00 0.00 0.00 84 1021.2
20260903024644 59 207 0.0 0.0 0.00 0.00 0.00 84 1021.2
20260903023044 59 220 0.0 0.0 0.00 0.00 0.00 83 1021.3
20260903021542 59 220 0.0 0.0 0.00 0.00 0.00 84 1021.3
20260903020049 59 221 0.0 0.0 0.00 0.00 0.00 84 1021.3
20260903014554 59 222 0.0 0.0 0.00 0.00 0.00 83 1021.4
20260903013038 59 222 0.0 0.0 0.00 0.00 0.00 82 1021.3
20260903011550 60 222 0.0 0.0 0.00 0.00 0.00 82 1021.2
20260903010044 60 222 1.0 3.0 0.00 0.00 0.00 81 1021.2
20260903004533 61 222 2.0 3.0 0.00 0.00 0.00 81 1021.3
20260903003028 61 223 0.0 2.0 0.00 0.00 0.00 79 1021.2
20260903001525 62 223 0.0 0.0 0.00 0.00 0.00 76 1021.3
20260903000024 63 223 0.0 1.0 0.00 0.00 0.00 75 1021.2
20260902234523 63 223 0.0 4.0 0.00 0.00 0.00 75 1021.3
20260902233022 63 221 2.0 4.0 0.00 0.00 0.00 75 1021.3
20260902231536 63 213 2.0 4.0 0.00 0.00 0.00 76 1021.2
20260902230020 63 214 2.0 4.0 0.00 0.00 0.00 75 1021.4
20260902224519 63 222 3.0 4.0 0.00 0.00 0.00 75 1021.3
20260902223033 63 217 3.0 4.0 0.00 0.00 0.00 75 1021.3
20260902221521 64 216 2.0 4.0 0.00 0.00 0.00 75 1021.3
20260902220013 65 222 2.0 4.0 0.00 0.00 0.00 74 1021.4
20260902214519 66 225 3.0 5.0 0.00 0.00 0.00 73 1021.3
20260902213014 66 244 2.0 4.0 0.00 0.00 0.00 73 1021.2
20260902211510 65 226 3.0 5.0 0.00 0.00 0.00 74 1021.2
20260902210010 65 220 2.0 5.0 0.00 0.00 0.00 75 1021.1
20260902204510 65 242 3.0 5.0 0.00 0.00 0.00 72 1021.1
20260902203008 65 224 2.0 5.0 0.00 0.00 0.00 72 1020.9
20260902201508 66 234 3.0 6.0 0.00 0.00 0.00 70 1020.8
20260902200009 67 218 4.0 8.0 0.00 0.00 0.00 69 1020.8
20260902194519 67 257 6.0 8.0 0.00 0.00 0.00 68 1020.8
20260902193006 66 258 3.0 7.0 0.00 0.00 0.00 70 1020.8
20260902191506 67 223 3.0 5.0 0.00 0.00 0.00 69 1020.6
20260902190006 67 253 4.0 7.0 0.00 0.00 0.00 69 1020.6
20260902184504 68 258 4.0 8.0 0.00 0.00 0.00 67 1020.4
20260902183004 69 247 3.0 6.0 0.00 0.00 0.00 67 1020.2
20260902181503 70 245 3.0 6.0 0.00 0.00 0.00 65 1020.0
20260902180004 71 248 2.0 4.0 0.00 0.00 0.00 65 1019.9
20260902174501 73 293 1.0 6.0 0.00 0.00 0.00 61 1019.8
20260902173001 74 277 0.0 3.0 0.00 0.00 0.00 60 1019.6
20260902171603 74 277 0.0 3.0 0.00 0.00 0.00 60 1019.5
20260902170100 74 321 0.0 1.0 0.00 0.00 0.00 57 1019.6
20260902164604 74 318 1.0 5.0 0.00 0.00 0.00 55 1019.5
20260902164501 74 349 0.0 6.0 0.00 0.00 0.00 54 1019.5
20260902163100 75 316 3.0 7.0 0.00 0.00 0.00 53 1019.3
20260902161559 78 55 3.0 11.0 0.00 0.00 0.00 50 1019.4
20260902160108 78 273 4.0 8.0 0.00 0.00 0.00 49 1019.3
20260902154600 76 262 5.0 8.0 0.00 0.00 0.00 50 1019.3
20260902153054 76 288 3.0 8.0 0.00 0.00 0.00 50 1019.5
20260902151601 76 284 6.0 9.0 0.00 0.00 0.00 49 1019.3
20260902150051 77 312 4.0 8.0 0.00 0.00 0.00 50 1019.4
20260902144550 77 251 4.0 7.0 0.00 0.00 0.00 48 1019.5
20260902143050 80 274 9.0 13.0 0.00 0.00 0.00 46 1019.4
20260902141547 79 246 5.0 13.0 0.00 0.00 0.00 47 1019.3
20260902140047 79 290 3.0 13.0 0.00 0.00 0.00 50 1019.6
20260902134544 79 299 4.0 11.0 0.00 0.00 0.00 49 1019.5
20260902133044 78 218 8.0 16.0 0.00 0.00 0.00 47 1019.6
20260902131544 78 248 6.0 14.0 0.00 0.00 0.00 48 1019.6
20260902130140 78 271 4.0 15.0 0.00 0.00 0.00 48 1019.7
20260902124539 78 268 9.0 14.0 0.00 0.00 0.00 49 1019.7
20260902123037 78 282 6.0 11.0 0.00 0.00 0.00 47 1019.8
20260902121535 77 283 9.0 12.0 0.00 0.00 0.00 49 1019.8
20260902120037 77 279 2.0 17.0 0.00 0.00 0.00 53 1019.9
20260902114540 77 306 5.0 11.0 0.00 0.00 0.00 55 1020.3
20260902113030 76 248 6.0 11.0 0.00 0.00 0.00 57 1020.2
20260902111527 75 311 4.0 10.0 0.00 0.00 0.00 61 1020.4
20260902110031 74 282 3.0 10.0 0.00 0.00 0.00 59 1020.5
20260902104541 73 285 6.0 14.0 0.00 0.00 0.00 59 1020.8
20260902103018 72 222 8.0 13.0 0.00 0.00 0.00 62 1020.7
20260902101515 71 276 7.0 12.0 0.00 0.00 0.00 64 1020.8